Weather in Inkino

Russia / Tomsk District     58°28′58″N   82°07′25″E
temp.,
°C
wind,
m/s
gust,
m/s
humid.,
%
clouds,
%
prec.,
mm/h
press.,
hPa
HPBL,
m
18 may, tue
tue1801:00+10se4993100 0.0 1007216
04:00+10ese5897100 3.7 1002261
07:00+9nne4798100 12.3 1001375
10:00+9ne61089100 1.5 1004639
13:00+9nne5885100 1.6 1008715
16:00+11ne4670100 0.1 10101080
19:00+13nne2655100 0.1 10101418
22:00+10nne4962100 0.0 1012213
19 may, wed
wed1901:00+6nne510605 0.0 1013251
04:00+3nne486388 0.0 1015192
07:00+4nne59605 0.0 1015356
10:00+7nne57405 0.0 10161694
13:00+9n6731100 0.0 10162723
16:00+10n7830100 0.0 10152652
19:00+8n7832100 0.0 10162436
22:00+5nne6937100 0.0 1017917
20 may, thu
thu2001:00+2n49505 0.0 1018289
04:000nnw410565 0.0 1018306
07:00+1n59550 0.0 1020422
10:00+5n56404 0.0 10201481
13:00+8nnw45335 0.0 10191879
16:00+9nw4432100 0.0 10181936
19:00+10nw333359 0.0 10181783
22:00+7w2245100 0.0 101825
21 may, fri
fri2101:00+5sw2253100 0.0 101833
04:00+3sw2361100 0.0 101846
07:00+5sw3657100 0.0 1019196
10:00+7sw4646100 0.0 1019602
13:00+8sw5762100 0.0 10191080
16:00+6sw5986100 0.0 1018626
19:00+6ssw4789100 0.3 1018481
22:00+6s3594100 0.2 1017272
22 may, sat
sat2201:00+6s369566 0.3 1016241
04:00+6sse269799 0.1 1015196
07:00+6s239699 0.3 1016134
10:00+10sse0186100 0.0 1016293
13:00+13e1174100 0.0 1017505
16:00+15ene116999 0.0 1017598
19:00+16e216662 0.0 1017497
22:00+14se367824 0.0 1017124